2024/01/20 00:00:00, 5.6, 1.0
2024/01/20 00:10:00, 5.6, 1.0
2024/01/20 00:20:00, 5.6, 1.3
2024/01/20 00:30:00, 5.6, 1.2
2024/01/20 00:40:00, 5.6, 1.2
2024/01/20 00:50:00, 5.6, 1.3
2024/01/20 01:00:00, 5.6, 1.6
2024/01/20 01:10:00, 5.6, 1.4
2024/01/20 01:20:00, 5.5, 1.2
2024/01/20 01:30:00, 5.5, 1.3
2024/01/20 01:40:00, 5.5, 1.5
2024/01/20 01:50:00, 5.5, 1.2
2024/01/20 02:00:00, 5.5, 1.3
2024/01/20 02:10:00, 5.5, 1.4
2024/01/20 02:20:00, 5.5, 1.8
2024/01/20 02:30:00, 5.5, 1.6
2024/01/20 02:40:00, 5.4, 1.5
2024/01/20 02:50:00, 5.4, 1.6
2024/01/20 03:00:00, 5.4, 1.3
2024/01/20 03:10:00, 5.4, 1.2
2024/01/20 03:20:00, 5.5, 1.1
2024/01/20 03:30:00, 5.4, 1.1
2024/01/20 03:40:00, 5.4, 1.2
2024/01/20 03:50:00, 5.4, 1.0
2024/01/20 04:00:00, 5.4, 1.2
2024/01/20 04:10:00, 5.4, 1.2
2024/01/20 04:20:00, 5.4, 1.1
2024/01/20 04:30:00, 5.4, 1.0
2024/01/20 04:40:00, 5.4, 1.2
2024/01/20 04:50:00, 5.4, 1.3
2024/01/20 05:00:00, 5.4, 1.0
2024/01/20 05:10:00, 5.4, 1.2
2024/01/20 05:20:00, 5.4, 1.2
2024/01/20 05:30:00, 5.4, 1.2
2024/01/20 05:40:00, 5.4, 1.2
2024/01/20 05:50:00, 5.3, 1.1
2024/01/20 06:00:00, 5.3, 1.5
2024/01/20 06:10:00, 5.3, 1.5
2024/01/20 06:20:00, 5.3, 1.6
2024/01/20 06:30:00, 5.2, 1.5
2024/01/20 06:40:00, 5.2, 1.7
2024/01/20 06:50:00, 5.2, 1.3
2024/01/20 07:00:00, 5.2, 1.3
2024/01/20 07:10:00, 5.2, 1.5
2024/01/20 07:20:00, 5.2, 1.6
2024/01/20 07:30:00, 5.1, 1.8
2024/01/20 07:40:00, 5.1, 1.8
2024/01/20 07:50:00, 5.1, 1.9
2024/01/20 08:00:00, 5.0, 2.0
2024/01/20 08:10:00, 5.0, 2.3
2024/01/20 08:20:00, 5.0, 2.5
2024/01/20 08:30:00, 5.0, 2.3
2024/01/20 08:40:00, 5.0, 2.5
2024/01/20 08:50:00, 5.0, 2.6
2024/01/20 09:00:00, 4.9, 2.7
2024/01/20 09:10:00, 4.9, 2.6
2024/01/20 09:20:00, 4.8, 2.8
2024/01/20 09:30:00, 4.7, 3.0
2024/01/20 09:40:00, 4.8, 3.4
2024/01/20 09:50:00, 4.7, 3.7
2024/01/20 10:00:00, 4.8, 3.3
2024/01/20 10:10:00, 4.7, 3.7
2024/01/20 10:20:00, 4.8, 3.3
2024/01/20 10:30:00, 4.8, 3.3
2024/01/20 10:40:00, 4.7, 3.8
2024/01/20 10:50:00, 4.7, 3.4
2024/01/20 11:00:00, 4.8, 4.1
2024/01/20 11:10:00, 4.7, 4.6
2024/01/20 11:20:00, 4.7, 4.8
2024/01/20 11:30:00, 4.7, 5.0
2024/01/20 11:40:00, 4.6, 5.4
2024/01/20 11:50:00, 4.6, 4.9
2024/01/20 12:00:00, 4.6, 4.4
2024/01/20 12:10:00, 4.6, 4.4
2024/01/20 12:20:00, 4.5, 4.4
2024/01/20 12:30:00, 4.5, 4.7
2024/01/20 12:40:00, 4.6, 4.4
2024/01/20 12:50:00, 4.5, 4.4
2024/01/20 13:00:00, 4.6, 4.3
2024/01/20 13:10:00, 4.4, 5.2
2024/01/20 13:20:00, 4.5, 5.0
2024/01/20 13:30:00, 4.6, 5.0
2024/01/20 13:40:00, 4.7, 4.2
2024/01/20 13:50:00, 4.9, 4.0
2024/01/20 14:00:00, 5.2, 4.1
2024/01/20 14:10:00, 4.6, 4.6
2024/01/20 14:20:00, 4.3, 5.1
2024/01/20 14:30:00, 4.4, 4.4
2024/01/20 14:40:00, 4.4, 4.3
2024/01/20 14:50:00, 4.4, 4.0
2024/01/20 15:00:00, 4.5, 4.1
2024/01/20 15:10:00, 4.5, 4.5
2024/01/20 15:20:00, 4.4, 4.6
2024/01/20 15:30:00, 4.3, 4.5
2024/01/20 15:40:00, 4.4, 4.6
2024/01/20 15:50:00, 4.1, 4.6
2024/01/20 16:00:00, 3.9, 4.2
2024/01/20 16:10:00, 4.0, 4.0
2024/01/20 16:20:00, 4.1, 3.6
2024/01/20 16:30:00, 3.9, 3.6
2024/01/20 16:40:00, 3.8, 3.5
2024/01/20 16:50:00, 3.8, 3.2
2024/01/20 17:00:00, 3.7, 3.4
2024/01/20 17:10:00, 3.7, 3.4
2024/01/20 17:20:00, 3.8, 3.4
2024/01/20 17:30:00, 3.7, 3.7
2024/01/20 17:40:00, 3.9, 4.3
2024/01/20 17:50:00, 3.8, 4.5
2024/01/20 18:00:00, 3.7, 5.0
2024/01/20 18:10:00, 3.4, 4.7
2024/01/20 18:20:00, 3.3, 4.2
2024/01/20 18:30:00, 3.2, 4.4
2024/01/20 18:40:00, 3.1, 4.9
2024/01/20 18:50:00, 2.9, 5.4
2024/01/20 19:00:00, 2.9, 5.9
2024/01/20 19:10:00, 2.9, 5.4
2024/01/20 19:20:00, 2.9, 5.1
2024/01/20 19:30:00, 2.9, 5.0
2024/01/20 19:40:00, 2.9, 4.8
2024/01/20 19:50:00, 2.9, 5.1
2024/01/20 20:00:00, 2.8, 5.0
2024/01/20 20:10:00, 2.8, 5.1
2024/01/20 20:20:00, 2.7, 5.2
2024/01/20 20:30:00, 2.6, 5.2
2024/01/20 20:40:00, 2.3, 5.2
2024/01/20 20:50:00, 2.3, 4.9
2024/01/20 21:00:00, 2.3, 4.8
2024/01/20 21:10:00, 2.4, 4.9
2024/01/20 21:20:00, 2.3, 3.7
2024/01/20 21:30:00, 2.3, 3.6
2024/01/20 21:40:00, 2.1, 3.3
2024/01/20 21:50:00, 2.1, 2.9
2024/01/20 22:00:00, 1.7, 3.0
2024/01/20 22:10:00, 0.8, 3.2
2024/01/20 22:20:00, 0.8, 4.4
2024/01/20 22:30:00, 0.9, 5.1
2024/01/20 22:40:00, 0.9, 5.2
2024/01/20 22:50:00, 0.7, 5.5
2024/01/20 23:00:00, 0.8, 5.3
2024/01/20 23:10:00, 0.9, 4.2
2024/01/20 23:20:00, 0.8, 4.0
2024/01/20 23:30:00, 0.8, 3.4
2024/01/20 23:40:00, 0.8, 3.5
2024/01/20 23:50:00, 0.7, 3.3
